CW0262 Weather Reports


Display with metric or nautical units.
time (UTC)temp
F
wind
direction
speed
MPH
gust
MPH
rain 1hr
in
rain 24hr
in
rain mn
in
humidity
%
barometer
mb
20260903043205 81 212 0.0 0.0 0.00 0.04 0.00 100 1013.9
20260903041703 81 212 0.0 0.0 0.00 0.04 0.00 100 1014.9
20260903041204 81 212 0.0 0.0 0.00 0.04 0.00 100 1014.9
20260903040704 81 211 0.0 0.0 0.00 0.04 0.00 100 1014.9
20260903040204 81 212 0.0 0.0 0.00 0.04 0.00 100 1013.9
20260903034704 81 126 0.0 0.0 0.00 0.04 0.04 100 1014.8
20260903033206 81 126 0.0 0.0 0.00 0.04 0.04 100 1014.9
20260903031704 81 126 0.0 0.0 0.00 0.04 0.04 100 1013.9
20260903030705 81 126 0.0 0.0 0.00 0.04 0.04 100 1013.9
20260903024704 81 74 0.0 0.0 0.00 0.04 0.04 100 1013.9
20260903024204 81 71 0.0 0.0 0.00 0.04 0.04 100 1013.9
20260903023703 82 109 0.0 0.0 0.00 0.04 0.04 100 1013.9
20260903021704 82 109 0.0 0.0 0.00 0.04 0.04 100 1013.9
20260903020704 82 109 0.0 0.0 0.00 0.04 0.04 100 1013.9
20260903020204 82 109 0.0 0.0 0.00 0.04 0.04 99 1013.9
20260903014204 82 109 0.0 0.0 0.00 0.04 0.04 98 1013.9
20260903013203 82 109 0.0 0.0 0.00 0.04 0.04 98 1013.9
20260903011703 82 102 0.0 0.0 0.00 0.04 0.04 97 1013.9
20260903011205 82 102 0.0 0.0 0.00 0.04 0.04 97 1013.9
20260903010203 82 98 0.0 3.0 0.00 0.04 0.04 97 1012.9
20260903004204 82 95 2.0 3.0 0.00 0.04 0.04 96 1012.9
20260903003703 82 93 1.0 3.0 0.00 0.04 0.04 96 1012.9
20260903003204 82 93 3.0 6.0 0.00 0.04 0.04 96 1012.9
20260903001704 82 130 2.0 3.0 0.00 0.04 0.04 96 1012.9
20260903000704 82 107 3.0 6.0 0.00 0.04 0.04 96 1012.9
20260903000205 82 99 2.0 6.0 0.00 0.04 0.04 96 1012.9
20260902234703 83 120 1.0 3.0 0.00 0.04 0.04 95 1012.9
20260902234203 83 105 3.0 8.0 0.00 0.04 0.04 95 1012.9
20260902233703 83 106 5.0 6.0 0.00 0.04 0.04 95 1012.9
20260902233203 83 119 5.0 9.0 0.00 0.04 0.04 95 1012.9
20260902231704 83 106 6.0 9.0 0.00 0.04 0.04 94 1012.9
20260902231204 83 99 6.0 8.0 0.00 0.04 0.04 94 1012.9
20260902230704 83 98 6.0 9.0 0.00 0.04 0.04 93 1012.9
20260902230204 83 81 6.0 9.0 0.00 0.04 0.04 93 1012.9
20260902224204 84 98 6.0 8.0 0.00 0.04 0.04 89 1012.9
20260902223704 84 100 6.0 8.0 0.00 0.04 0.04 89 1012.9
20260902223203 84 103 3.0 8.0 0.00 0.04 0.04 89 1012.9
20260902221704 85 100 5.0 7.0 0.00 0.04 0.04 88 1012.9
20260902221203 85 84 5.0 7.0 0.00 0.04 0.04 88 1012.9
20260902220203 85 110 4.0 9.0 0.00 0.04 0.04 89 1012.9
20260902214704 85 110 6.0 8.0 0.00 0.04 0.04 88 1012.9
20260902214203 85 85 7.0 9.0 0.00 0.04 0.04 88 1012.9
20260902213204 85 84 7.0 9.0 0.00 0.04 0.04 88 1012.9
20260902211705 86 91 6.0 8.0 0.00 0.04 0.04 88 1012.9
20260902210704 86 75 7.0 8.0 0.00 0.04 0.04 87 1012.9
20260902210203 86 63 6.0 9.0 0.00 0.04 0.04 86 1012.9
20260902204704 86 69 3.0 9.0 0.00 0.04 0.04 88 1012.9
20260902203703 86 79 6.0 9.0 0.00 0.04 0.04 87 1012.9
20260902203203 87 88 8.0 12.0 0.00 0.04 0.04 87 1012.9
20260902201203 87 59 6.0 8.0 0.00 0.04 0.04 84 1012.9
20260902200703 87 68 6.0 9.0 0.00 0.04 0.04 84 1012.9
20260902200205 87 98 4.0 8.0 0.00 0.04 0.04 83 1012.9
20260902194704 87 77 4.0 6.0 0.00 0.04 0.04 87 1012.9
20260902194204 87 144 5.0 6.0 0.00 0.04 0.04 88 1012.9
20260902193205 86 96 5.0 8.0 0.00 0.08 0.04 88 1013.9
20260902191204 86 89 2.0 5.0 0.00 0.08 0.04 90 1013.9
20260902190704 86 98 2.0 6.0 0.00 0.08 0.04 92 1013.9
20260902190203 85 98 3.0 6.0 0.00 0.08 0.04 91 1013.9
20260902184204 85 91 6.0 8.0 0.00 0.08 0.04 92 1013.9
20260902183704 85 91 5.0 8.0 0.00 0.08 0.04 92 1013.9
20260902183204 85 93 3.0 8.0 0.00 0.08 0.04 91 1013.9
20260902181203 86 56 3.0 8.0 0.00 0.08 0.04 92 1013.9
20260902180704 85 78 3.0 5.0 0.00 0.08 0.04 95 1013.9
20260902180203 85 60 3.0 6.0 0.00 0.08 0.04 95 1013.9
20260902174704 84 63 3.0 6.0 0.00 0.08 0.04 96 1013.9
20260902174203 84 63 4.0 6.0 0.00 0.08 0.04 96 1013.9
20260902173703 84 61 3.0 8.0 0.00 0.08 0.04 98 1013.9
20260902170704 83 107 3.0 5.0 0.00 0.08 0.04 100 1014.9
20260902164704 83 94 3.0 6.0 0.00 0.08 0.04 100 1014.9
20260902164204 83 99 3.0 3.0 0.00 0.08 0.04 100 1014.9
20260902163704 83 99 3.0 6.0 0.04 0.08 0.04 100 1014.9
20260902163203 83 96 3.0 6.0 0.04 0.08 0.04 99 1014.9
20260902161704 83 85 1.0 3.0 0.04 0.08 0.04 97 1014.9
20260902161203 83 93 0.0 0.0 0.04 0.08 0.04 96 1014.9
20260902160704 83 101 0.0 2.0 0.04 0.08 0.04 97 1014.9
20260902160203 83 306 0.0 0.0 0.04 0.08 0.04 96 1014.9
20260902154704 83 306 0.0 0.0 0.04 0.08 0.04 96 1015.9
20260902153703 83 294 0.0 0.0 0.00 0.04 0.00 96 1015.9
20260902153204 83 311 0.0 3.0 0.00 0.04 0.00 97 1015.9
20260902151704 83 258 3.0 3.0 0.00 0.04 0.00 97 1014.9
20260902151203 83 264 0.0 3.0 0.00 0.04 0.00 98 1014.9
20260902150204 83 263 2.0 3.0 0.00 0.04 0.00 97 1014.9
20260902144704 83 351 2.0 3.0 0.00 0.04 0.00 98 1014.9
20260902144204 83 357 0.0 3.0 0.00 0.04 0.00 98 1014.9
20260902143703 83 335 0.0 3.0 0.00 0.04 0.00 98 1014.9
20260902143204 83 358 0.0 3.0 0.00 0.04 0.00 98 1014.9
20260902141704 83 340 1.0 6.0 0.00 0.04 0.00 99 1014.9
20260902141203 83 0 3.0 6.0 0.00 0.04 0.00 100 1014.9
20260902140704 83 349 1.0 6.0 0.00 0.04 0.00 100 1014.9
20260902134704 82 40 1.0 3.0 0.00 0.04 0.00 100 1014.9
20260902134204 81 351 3.0 5.0 0.00 0.04 0.00 100 1014.9
20260902133703 81 7 0.0 3.0 0.00 0.04 0.00 100 1014.9
20260902133204 81 354 0.0 3.0 0.00 0.04 0.00 100 1014.9
20260902131703 80 16 0.0 0.0 0.00 0.04 0.00 100 1014.9
20260902131204 80 0 0.0 0.0 0.00 0.04 0.00 100 1014.9
20260902130203 79 321 1.0 3.0 0.00 0.04 0.00 100 1014.9
20260902124704 79 2 3.0 5.0 0.00 0.04 0.00 100 1014.9
20260902124203 78 347 2.0 3.0 0.00 0.04 0.00 100 1014.9
20260902123703 78 307 2.0 3.0 0.00 0.04 0.00 100 1014.9
20260902123203 78 309 1.0 3.0 0.00 0.04 0.00 100 1014.9
20260902121204 78 312 0.0 0.0 0.00 0.04 0.00 100 1014.9
20260902120204 77 250 0.0 0.0 0.00 0.04 0.00 100 1014.9
20260902114704 77 349 0.0 0.0 0.00 0.04 0.00 100 1014.9
20260902114205 77 349 0.0 0.0 0.00 0.04 0.00 100 1014.9
20260902113205 77 349 0.0 0.0 0.00 0.04 0.00 100 1013.9
20260902111704 77 344 0.0 0.0 0.00 0.04 0.00 100 1013.9
20260902111203 77 344 0.0 0.0 0.00 0.04 0.00 100 1013.9
20260902110704 77 344 0.0 0.0 0.00 0.04 0.00 100 1013.9
20260902104204 77 329 0.0 0.0 0.00 0.04 0.00 100 1013.9
20260902103704 77 324 0.0 0.0 0.00 0.04 0.00 100 1013.9
20260902101203 77 1 0.0 0.0 0.00 0.04 0.00 100 1013.9
20260902100203 77 349 0.0 0.0 0.00 0.04 0.00 100 1013.9
20260902094703 77 356 0.0 3.0 0.00 0.04 0.00 100 1013.9
20260902093704 77 347 0.0 2.0 0.00 0.04 0.00 100 1013.9
20260902093203 77 309 2.0 3.0 0.00 0.04 0.00 100 1013.9
20260902091704 78 344 0.0 0.0 0.00 0.04 0.00 100 1013.9
20260902091204 78 324 0.0 0.0 0.00 0.04 0.00 100 1013.9
20260902090703 78 324 0.0 0.0 0.00 0.04 0.00 100 1013.9
20260902084703 78 322 0.0 0.0 0.00 0.04 0.00 100 1013.9
20260902084204 78 290 0.0 0.0 0.00 0.04 0.00 100 1013.9
20260902083704 78 290 0.0 0.0 0.00 0.04 0.00 100 1013.9
20260902083204 78 290 0.0 2.0 0.00 0.04 0.00 100 1013.9
20260902081704 78 324 0.0 0.0 0.00 0.04 0.00 100 1013.9
20260902081204 78 330 0.0 0.0 0.00 0.04 0.00 100 1013.9
20260902080203 78 326 0.0 0.0 0.00 0.04 0.00 100 1013.9
20260902074204 78 342 0.0 2.0 0.00 0.04 0.00 100 1013.9
20260902073704 78 349 0.0 0.0 0.00 0.04 0.00 100 1013.9
20260902073203 78 343 0.0 0.0 0.00 0.04 0.00 100 1013.9
20260902071704 78 325 0.0 0.0 0.00 0.04 0.00 100 1013.9
20260902071203 78 253 0.0 0.0 0.00 0.04 0.00 100 1013.9
20260902070703 78 253 0.0 0.0 0.00 0.04 0.00 100 1013.9
20260902070203 78 253 0.0 0.0 0.00 0.04 0.00 100 1013.9
20260902064704 78 252 0.0 0.0 0.00 0.04 0.00 100 1013.9
20260902063704 78 253 0.0 0.0 0.00 0.04 0.00 100 1013.9
20260902063204 78 253 0.0 0.0 0.00 0.04 0.00 100 1013.9
20260902061203 78 252 0.0 0.0 0.00 0.04 0.00 100 1014.9
20260902060703 78 252 0.0 0.0 0.00 0.04 0.00 100 1014.9
20260902060203 78 252 0.0 2.0 0.00 0.04 0.00 100 1013.9
20260902054704 79 304 0.0 0.0 0.00 0.04 0.00 100 1014.9
20260902054204 79 304 0.0 0.0 0.00 0.04 0.00 100 1014.9
20260902053704 79 304 0.0 0.0 0.00 0.04 0.00 100 1014.9
20260902053203 79 304 0.0 0.0 0.00 0.04 0.00 100 1013.9
20260902051704 79 304 0.0 0.0 0.00 0.04 0.00 100 1013.9
20260902051203 79 304 0.0 0.0 0.00 0.04 0.00 100 1013.9
20260902050704 79 304 0.0 0.0 0.00 0.04 0.00 100 1013.9
20260902050204 79 304 0.0 0.0 0.00 0.04 0.00 100 1013.9
20260902044704 79 326 0.0 0.0 0.00 0.04 0.00 100 1014.9